Weather History for KCQX - May, 2014

Change the Weather History Date:

Sunday, May 11, 2014

  Actual Average Record
Temperature  
Mean Temperature 62 °F -  
Max Temperature 71 °F 58 °F 81 °F (2004)
Min Temperature 53 °F 44 °F 39 °F (1999)
Degree Days  
Heating Degree Days 4    
Growing Degree Days 12 (Base 50)    
Moisture  
Dew Point 50 °F    
Average Humidity 72    
Maximum Humidity 97    
Minimum Humidity 39    
Precipitation  
Precipitation 0.25 in - - ()
Sea Level Pressure  
Sea Level Pressure 29.94 in    
Wind  
Wind Speed 8 mph (WSW)    
Max Wind Speed 13 mph    
Max Gust Speed 22 mph    
Visibility 9 miles    
Events Rain    
Averages and records for this station are not official NWS values.
T = Trace of Precipitation, MM = Missing Value Source: NWS Daily Summary

Daily Weather History Graph

Daily Weather History Graph

Search for Another Location

Airport or City:

Trip Planner

Search our weather history database for the weather conditions in past years. The results will help you decide how hot, cold, wet, or windy it might be!

Date:

Astronomy

May. 11, 2014 Rise Set
Actual Time 5:24 AM EDT 7:48 PM EDT
Civil Twilight 4:53 AM EDT 8:20 PM EDT
Nautical Twilight 4:14 AM EDT 8:59 PM EDT
Astronomical Twilight 3:31 AM EDT 9:42 PM EDT
Moon 4:38 PM EDT (5/11) 3:30 AM EDT (5/11)
Length of Visible Light 15h 26m
Length of Day
14h 24m
Waxing Gibbous, 89% of the Moon is Illuminated
May 11
Waxing Gibbous
May 14
Full
May 21
Last Quarter
May 28
New
Jun 5
First Quarter

Hourly Weather History & Observations

Time (EDT) Temp. Dew Point Humidity Pressure Visibility Wind Dir Wind Speed Gust Speed Precip Events Conditions
12:52 AM 55.0 °F 52.0 °F 89% 29.83 in 8.0 mi SW 8.1 mph - N/A   Clear
2:52 AM 57.0 °F 54.0 °F 89% 29.82 in 9.0 mi WSW 9.2 mph - 0.01 in Rain Light Rain
3:52 AM 57.0 °F 55.0 °F 93% 29.83 in 1.8 mi WSW 8.1 mph - 0.08 in Rain Heavy Rain
4:01 AM 55.9 °F 55.0 °F 97% 29.83 in 3.0 mi WSW 9.2 mph - 0.01 in Rain Light Rain
4:52 AM 59.0 °F 57.9 °F 96% 29.83 in 5.0 mi NW 5.8 mph - 0.08 in Rain Light Rain
5:52 AM 57.0 °F 55.0 °F 93% 29.88 in 9.0 mi WNW 9.2 mph 16.1 mph 0.05 in Rain Light Rain
6:52 AM 53.1 °F 50.0 °F 89% 29.91 in 5.0 mi Variable 3.5 mph - 0.03 in Rain Light Rain
7:52 AM 55.9 °F 53.1 °F 90% 29.93 in 10.0 mi WSW 3.5 mph - 0.00 in   Partly Cloudy
8:52 AM 63.0 °F 57.0 °F 81% 29.94 in 10.0 mi West 4.6 mph - N/A   Clear
9:52 AM 66.0 °F 44.1 °F 45% 29.96 in 10.0 mi WNW 10.4 mph 18.4 mph N/A   Clear
10:52 AM 70.0 °F 44.1 °F 39% 29.96 in 10.0 mi West 6.9 mph - N/A   Clear
11:52 AM 66.9 °F 48.9 °F 52% 29.97 in 10.0 mi SW 11.5 mph 20.7 mph N/A   Clear
12:52 PM 66.9 °F 50.0 °F 54% 29.96 in 10.0 mi SW 9.2 mph - N/A   Clear
2:52 PM 68.0 °F 48.0 °F 49% 29.96 in 10.0 mi SW 12.7 mph 21.9 mph N/A   Clear
3:52 PM 64.9 °F 48.0 °F 54% 29.96 in 10.0 mi SW 10.4 mph 20.7 mph N/A   Clear
5:52 PM 64.9 °F 46.9 °F 52% 29.96 in 10.0 mi SW 12.7 mph 20.7 mph N/A   Clear
6:52 PM 63.0 °F 45.0 °F 52% 29.97 in 10.0 mi WSW 11.5 mph 20.7 mph N/A   Clear
7:52 PM 62.1 °F 45.0 °F 53% 29.98 in 10.0 mi WSW 9.2 mph 17.3 mph N/A   Clear
8:52 PM 59.0 °F 46.9 °F 64% 30.01 in 10.0 mi SW 6.9 mph - N/A   Clear
9:52 PM 55.9 °F 48.9 °F 77% 30.03 in 10.0 mi SW 4.6 mph - N/A   Clear
10:52 PM 54.0 °F 48.0 °F 80% 30.03 in 10.0 mi SW 4.6 mph - N/A   Clear
11:52 PM 53.1 °F 48.9 °F 86% 30.04 in 10.0 mi Calm Calm - N/A   Clear